Year,Month,Day,Hour,Minute,Value (Times are PST for temperature in C)
2008,08,05,00,00,19.10
2008,08,05,00,01,19.10
2008,08,05,00,02,19.10
2008,08,05,00,03,19.10
2008,08,05,00,04,19.10
2008,08,05,00,05,19.10
2008,08,05,00,06,19.00
2008,08,05,00,07,18.90
2008,08,05,00,08,18.80
2008,08,05,00,09,18.60
2008,08,05,00,10,18.50
2008,08,05,00,11,18.30
2008,08,05,00,12,18.20
2008,08,05,00,13,18.20
2008,08,05,00,14,18.20
2008,08,05,00,15,18.20
2008,08,05,00,16,18.20
2008,08,05,00,17,18.20
2008,08,05,00,18,18.20
2008,08,05,00,19,18.20
2008,08,05,00,20,18.20
2008,08,05,00,21,18.20
2008,08,05,00,22,18.20
2008,08,05,00,23,18.20
2008,08,05,00,24,18.20
2008,08,05,00,25,18.20
2008,08,05,00,26,18.20
2008,08,05,00,27,18.20
2008,08,05,00,28,18.10
2008,08,05,00,29,18.00
2008,08,05,00,30,17.90
2008,08,05,00,31,17.90
2008,08,05,00,32,17.80
2008,08,05,00,33,17.70
2008,08,05,00,34,17.70
2008,08,05,00,35,17.70
2008,08,05,00,36,17.70
2008,08,05,00,37,17.70
2008,08,05,00,38,17.70
2008,08,05,00,39,17.60
2008,08,05,00,40,17.70
2008,08,05,00,41,17.70
2008,08,05,00,42,17.80
2008,08,05,00,43,17.80
2008,08,05,00,44,17.80
2008,08,05,00,45,17.90
2008,08,05,00,46,17.90
2008,08,05,00,47,17.90
2008,08,05,00,48,17.80
2008,08,05,00,49,17.80
2008,08,05,00,50,17.70
2008,08,05,00,51,17.60
2008,08,05,00,52,17.50
2008,08,05,00,53,17.40
2008,08,05,00,54,17.30
2008,08,05,00,55,17.30
2008,08,05,00,56,17.20
2008,08,05,00,57,17.20
2008,08,05,00,58,17.20
2008,08,05,00,59,17.20
2008,08,05,01,00,17.20
2008,08,05,01,01,17.30
2008,08,05,01,02,17.30
2008,08,05,01,03,17.30
2008,08,05,01,04,17.40
2008,08,05,01,05,17.40
2008,08,05,01,06,17.50
2008,08,05,01,07,17.50
2008,08,05,01,08,17.60
2008,08,05,01,09,17.70
2008,08,05,01,10,17.70
2008,08,05,01,11,17.70
2008,08,05,01,12,17.70
2008,08,05,01,13,17.70
2008,08,05,01,14,17.70
2008,08,05,01,15,17.70
2008,08,05,01,16,17.70
2008,08,05,01,17,17.70
2008,08,05,01,18,17.60
2008,08,05,01,19,17.70
2008,08,05,01,20,17.70
2008,08,05,01,21,17.70
2008,08,05,01,22,17.70
2008,08,05,01,23,17.70
2008,08,05,01,24,17.70
2008,08,05,01,25,17.60
2008,08,05,01,26,17.60
2008,08,05,01,27,17.60
2008,08,05,01,28,17.60
2008,08,05,01,29,17.50
2008,08,05,01,30,17.50
2008,08,05,01,31,17.50
2008,08,05,01,32,17.50
2008,08,05,01,33,17.50
2008,08,05,01,34,17.50
2008,08,05,01,35,17.50
2008,08,05,01,36,17.60
2008,08,05,01,37,17.50
2008,08,05,01,38,17.40
2008,08,05,01,39,17.30
2008,08,05,01,40,17.10
2008,08,05,01,41,17.00
2008,08,05,01,42,16.90
2008,08,05,01,43,16.80
2008,08,05,01,44,16.80
2008,08,05,01,45,16.70
2008,08,05,01,46,16.70
2008,08,05,01,47,16.70
2008,08,05,01,48,16.70
2008,08,05,01,49,16.70
2008,08,05,01,50,16.70
2008,08,05,01,51,16.70
2008,08,05,01,52,16.70
2008,08,05,01,53,16.70
2008,08,05,01,54,16.70
2008,08,05,01,55,16.70
2008,08,05,01,56,16.80
2008,08,05,01,57,16.80
2008,08,05,01,58,16.90
2008,08,05,01,59,16.90
2008,08,05,02,00,17.00
2008,08,05,02,01,17.00
2008,08,05,02,02,17.00
2008,08,05,02,03,16.90
2008,08,05,02,04,16.90
2008,08,05,02,05,16.90
2008,08,05,02,06,16.80
2008,08,05,02,07,16.80
2008,08,05,02,08,16.70
2008,08,05,02,09,16.70
2008,08,05,02,10,16.60
2008,08,05,02,11,16.60
2008,08,05,02,12,16.60
2008,08,05,02,13,16.50
2008,08,05,02,14,16.40
2008,08,05,02,15,16.50
2008,08,05,02,16,16.60
2008,08,05,02,17,16.60
2008,08,05,02,18,16.60
2008,08,05,02,19,16.60
2008,08,05,02,20,16.60
2008,08,05,02,21,16.60
2008,08,05,02,22,16.60
2008,08,05,02,23,16.60
2008,08,05,02,24,16.60
2008,08,05,02,25,16.60
2008,08,05,02,26,16.60
2008,08,05,02,27,16.70
2008,08,05,02,28,16.70
2008,08,05,02,29,16.70
2008,08,05,02,30,16.80
2008,08,05,02,31,16.90
2008,08,05,02,32,16.90
2008,08,05,02,33,17.00
2008,08,05,02,34,17.10
2008,08,05,02,35,17.20
2008,08,05,02,36,17.30
2008,08,05,02,37,17.30
2008,08,05,02,38,17.30
2008,08,05,02,39,17.30
2008,08,05,02,40,17.30
2008,08,05,02,41,17.30
2008,08,05,02,42,17.30
2008,08,05,02,43,17.30
2008,08,05,02,44,17.30
2008,08,05,02,45,17.30
2008,08,05,02,46,17.30
2008,08,05,02,47,17.40
2008,08,05,02,48,17.40
2008,08,05,02,49,17.40
2008,08,05,02,50,17.30
2008,08,05,02,51,17.30
2008,08,05,02,52,17.30
2008,08,05,02,53,17.30
2008,08,05,02,54,17.30
2008,08,05,02,55,17.30
2008,08,05,02,56,17.30
2008,08,05,02,57,17.30
2008,08,05,02,58,17.30
2008,08,05,02,59,17.30
2008,08,05,03,00,17.30
2008,08,05,03,01,17.10
2008,08,05,03,02,17.00
2008,08,05,03,03,16.90
2008,08,05,03,04,16.90
2008,08,05,03,05,16.80
2008,08,05,03,06,16.70
2008,08,05,03,07,16.50
2008,08,05,03,08,16.40
2008,08,05,03,09,16.30
2008,08,05,03,10,16.20
2008,08,05,03,11,16.10
2008,08,05,03,12,16.10
2008,08,05,03,13,16.10
2008,08,05,03,14,16.10
2008,08,05,03,15,16.00
2008,08,05,03,16,15.90
2008,08,05,03,17,15.90
2008,08,05,03,18,15.90
2008,08,05,03,19,15.90
2008,08,05,03,20,15.90
2008,08,05,03,21,16.10
2008,08,05,03,22,16.10
2008,08,05,03,23,16.10
2008,08,05,03,24,16.10
2008,08,05,03,25,16.10
2008,08,05,03,26,16.20
2008,08,05,03,27,16.20
2008,08,05,03,28,16.20
2008,08,05,03,29,16.20
2008,08,05,03,30,16.20
2008,08,05,03,31,16.20
2008,08,05,03,32,16.30
2008,08,05,03,33,16.30
2008,08,05,03,34,16.40
2008,08,05,03,35,16.40
2008,08,05,03,36,16.40
2008,08,05,03,37,16.50
2008,08,05,03,38,16.60
2008,08,05,03,39,16.60
2008,08,05,03,40,16.70
2008,08,05,03,41,16.70
2008,08,05,03,42,16.70
2008,08,05,03,43,16.70
2008,08,05,03,44,16.80
2008,08,05,03,45,16.80
2008,08,05,03,46,16.90
2008,08,05,03,47,16.90
2008,08,05,03,48,17.00
2008,08,05,03,49,17.00
2008,08,05,03,50,17.10
2008,08,05,03,51,17.20
2008,08,05,03,52,17.20
2008,08,05,03,53,17.30
2008,08,05,03,54,17.30
2008,08,05,03,55,17.30
2008,08,05,03,56,17.30
2008,08,05,03,57,17.30
2008,08,05,03,58,17.30
2008,08,05,03,59,17.40
2008,08,05,04,00,17.40
2008,08,05,04,01,17.40
2008,08,05,04,02,17.40
2008,08,05,04,03,17.40
2008,08,05,04,04,17.40
2008,08,05,04,05,17.30
2008,08,05,04,06,17.30
2008,08,05,04,07,17.10
2008,08,05,04,08,17.00
2008,08,05,04,09,17.00
2008,08,05,04,10,16.90
2008,08,05,04,11,16.80
2008,08,05,04,12,16.70
2008,08,05,04,13,16.70
2008,08,05,04,14,16.60
2008,08,05,04,15,16.50
2008,08,05,04,16,16.40
2008,08,05,04,17,16.40
2008,08,05,04,18,16.30
2008,08,05,04,19,16.30
2008,08,05,04,20,16.20
2008,08,05,04,21,16.20
2008,08,05,04,22,16.20
2008,08,05,04,23,16.20
2008,08,05,04,24,16.20
2008,08,05,04,25,16.20
2008,08,05,04,26,16.30
2008,08,05,04,27,16.30
2008,08,05,04,28,16.30
2008,08,05,04,29,16.30
2008,08,05,04,30,16.30
2008,08,05,04,31,16.30
2008,08,05,04,32,16.40
2008,08,05,04,33,16.40
2008,08,05,04,34,16.40
2008,08,05,04,35,16.40
2008,08,05,04,36,16.40
2008,08,05,04,37,16.40
2008,08,05,04,38,16.40
2008,08,05,04,39,16.40
2008,08,05,04,40,16.40
2008,08,05,04,41,16.40
2008,08,05,04,42,16.40
2008,08,05,04,43,16.40
2008,08,05,04,44,16.30
2008,08,05,04,45,16.30
2008,08,05,04,46,16.20
2008,08,05,04,47,16.20
2008,08,05,04,48,16.10
2008,08,05,04,49,16.10
2008,08,05,04,50,16.00
2008,08,05,04,51,15.90
2008,08,05,04,52,15.90
2008,08,05,04,53,15.80
2008,08,05,04,54,15.80
2008,08,05,04,55,15.70
2008,08,05,04,56,15.60
2008,08,05,04,57,15.60
2008,08,05,04,58,15.60
2008,08,05,04,59,15.60
2008,08,05,05,00,15.50
2008,08,05,05,01,15.50
2008,08,05,05,02,15.50
2008,08,05,05,03,15.50
2008,08,05,05,04,15.40
2008,08,05,05,05,15.40
2008,08,05,05,06,15.40
2008,08,05,05,07,15.40
2008,08,05,05,08,15.40
2008,08,05,05,09,15.40
2008,08,05,05,10,15.30
2008,08,05,05,11,15.30
2008,08,05,05,12,15.30
2008,08,05,05,13,15.30
2008,08,05,05,14,15.30
2008,08,05,05,15,15.40
2008,08,05,05,16,15.50
2008,08,05,05,17,15.60
2008,08,05,05,18,15.70
2008,08,05,05,19,15.80
2008,08,05,05,20,15.80
2008,08,05,05,21,15.90
2008,08,05,05,22,15.90
2008,08,05,05,23,15.90
2008,08,05,05,24,15.90
2008,08,05,05,25,15.90
2008,08,05,05,26,15.90
2008,08,05,05,27,15.90
2008,08,05,05,28,16.00
2008,08,05,05,29,16.10
2008,08,05,05,30,16.10
2008,08,05,05,31,16.10
2008,08,05,05,32,16.10
2008,08,05,05,33,16.10
2008,08,05,05,34,16.00
2008,08,05,05,35,15.90
2008,08,05,05,36,15.80
2008,08,05,05,37,15.80
2008,08,05,05,38,15.80
2008,08,05,05,39,15.70
2008,08,05,05,40,15.70
2008,08,05,05,41,15.60
2008,08,05,05,42,15.50
2008,08,05,05,43,15.50
2008,08,05,05,44,15.40
2008,08,05,05,45,15.40
2008,08,05,05,46,15.30
2008,08,05,05,47,15.30
2008,08,05,05,48,15.20
2008,08,05,05,49,15.10
2008,08,05,05,50,15.10
2008,08,05,05,51,15.00
2008,08,05,05,52,14.90
2008,08,05,05,53,14.90
2008,08,05,05,54,14.90
2008,08,05,05,55,14.90
2008,08,05,05,56,15.00
2008,08,05,05,57,15.10
2008,08,05,05,58,15.10
2008,08,05,05,59,15.20
2008,08,05,06,00,15.30
2008,08,05,06,01,15.30
2008,08,05,06,02,15.40
2008,08,05,06,03,15.40
2008,08,05,06,04,15.50
2008,08,05,06,05,15.50
2008,08,05,06,06,15.60
2008,08,05,06,07,15.60
2008,08,05,06,08,15.60
2008,08,05,06,09,15.60
2008,08,05,06,10,15.60
2008,08,05,06,11,15.60
2008,08,05,06,12,15.60
2008,08,05,06,13,15.50
2008,08,05,06,14,15.50
2008,08,05,06,15,15.40
2008,08,05,06,16,15.40
2008,08,05,06,17,15.30
2008,08,05,06,18,15.30
2008,08,05,06,19,15.30
2008,08,05,06,20,15.40
2008,08,05,06,21,15.40
2008,08,05,06,22,15.50
2008,08,05,06,23,15.50
2008,08,05,06,24,15.60
2008,08,05,06,25,15.70
2008,08,05,06,26,15.80
2008,08,05,06,27,15.90
2008,08,05,06,28,16.00
2008,08,05,06,29,16.10
2008,08,05,06,30,16.10
2008,08,05,06,31,16.20
2008,08,05,06,32,16.20
2008,08,05,06,33,16.30
2008,08,05,06,34,16.40
2008,08,05,06,35,16.40
2008,08,05,06,36,16.40
2008,08,05,06,37,16.40
2008,08,05,06,38,16.50
2008,08,05,06,39,16.60
2008,08,05,06,40,16.60
2008,08,05,06,41,16.60
2008,08,05,06,42,16.60
2008,08,05,06,43,16.60
2008,08,05,06,44,16.60
2008,08,05,06,45,16.70
2008,08,05,06,46,16.70
2008,08,05,06,47,16.70
2008,08,05,06,48,16.80
2008,08,05,06,49,16.80
2008,08,05,06,50,16.90
2008,08,05,06,51,17.00
2008,08,05,06,52,17.00
2008,08,05,06,53,17.10
2008,08,05,06,54,17.20
2008,08,05,06,55,17.30
2008,08,05,06,56,17.30
2008,08,05,06,57,17.30
2008,08,05,06,58,17.40
2008,08,05,06,59,17.50
2008,08,05,07,00,17.50
2008,08,05,07,01,17.60
2008,08,05,07,02,17.60
2008,08,05,07,03,17.70
2008,08,05,07,04,17.70
2008,08,05,07,05,17.70
2008,08,05,07,06,17.80
2008,08,05,07,07,17.80
2008,08,05,07,08,17.80
2008,08,05,07,09,17.90
2008,08,05,07,10,17.90
2008,08,05,07,11,17.80
2008,08,05,07,12,17.80
2008,08,05,07,13,17.80
2008,08,05,07,14,17.90
2008,08,05,07,15,17.80
2008,08,05,07,16,17.90
2008,08,05,07,17,17.90
2008,08,05,07,18,17.90
2008,08,05,07,19,17.90
2008,08,05,07,20,17.90
2008,08,05,07,21,17.90
2008,08,05,07,22,17.90
2008,08,05,07,23,17.90
2008,08,05,07,24,17.90
2008,08,05,07,25,17.90
2008,08,05,07,26,17.90
2008,08,05,07,27,17.90
2008,08,05,07,28,17.90
2008,08,05,07,29,17.90
2008,08,05,07,30,17.90
2008,08,05,07,31,17.90
2008,08,05,07,32,17.90
2008,08,05,07,33,17.90
2008,08,05,07,34,17.90
2008,08,05,07,35,17.80
2008,08,05,07,36,17.80
2008,08,05,07,37,17.70
2008,08,05,07,38,17.70
2008,08,05,07,39,17.70
2008,08,05,07,40,17.60
2008,08,05,07,41,17.50
2008,08,05,07,42,17.50
2008,08,05,07,43,17.50
2008,08,05,07,44,17.40
2008,08,05,07,45,17.40
2008,08,05,07,46,17.40
2008,08,05,07,47,17.40
2008,08,05,07,48,17.30
2008,08,05,07,49,17.40
2008,08,05,07,50,17.40
2008,08,05,07,51,17.40
2008,08,05,07,52,17.40
2008,08,05,07,53,17.50
2008,08,05,07,54,17.50
2008,08,05,07,55,17.40
2008,08,05,07,56,17.40
2008,08,05,07,57,17.40
2008,08,05,07,58,17.30
2008,08,05,07,59,17.40
2008,08,05,08,00,17.50
2008,08,05,08,01,17.50
2008,08,05,08,02,17.50
2008,08,05,08,03,17.50
2008,08,05,08,04,17.50
2008,08,05,08,05,17.40
2008,08,05,08,06,17.40
2008,08,05,08,07,17.50
2008,08,05,08,08,17.50
2008,08,05,08,09,17.50
2008,08,05,08,10,17.50
2008,08,05,08,11,17.50
2008,08,05,08,12,17.60
2008,08,05,08,13,17.60
2008,08,05,08,14,17.60
2008,08,05,08,15,17.70
2008,08,05,08,16,17.70
2008,08,05,08,17,17.80
2008,08,05,08,18,17.80
2008,08,05,08,19,17.90
2008,08,05,08,20,17.90
2008,08,05,08,21,17.90
2008,08,05,08,22,17.90
2008,08,05,08,23,18.10
2008,08,05,08,24,18.10
2008,08,05,08,25,18.20
2008,08,05,08,26,18.20
2008,08,05,08,27,18.20
2008,08,05,08,28,18.20
2008,08,05,08,29,18.30
2008,08,05,08,30,18.30
2008,08,05,08,31,18.30
2008,08,05,08,32,18.40
2008,08,05,08,33,18.40
2008,08,05,08,34,18.40
2008,08,05,08,35,18.50
2008,08,05,08,36,18.50
2008,08,05,08,37,18.60
2008,08,05,08,38,18.70
2008,08,05,08,39,18.70
2008,08,05,08,40,18.80
2008,08,05,08,41,18.90
2008,08,05,08,42,19.00
2008,08,05,08,43,19.10
2008,08,05,08,44,19.10
2008,08,05,08,45,19.10
2008,08,05,08,46,19.10
2008,08,05,08,47,19.20
2008,08,05,08,48,19.30
2008,08,05,08,49,19.40
2008,08,05,08,50,19.40
2008,08,05,08,51,19.50
2008,08,05,08,52,19.50
2008,08,05,08,53,19.50
2008,08,05,08,54,19.50
2008,08,05,08,55,19.50
2008,08,05,08,56,19.50
2008,08,05,08,57,19.40
2008,08,05,08,58,19.50
2008,08,05,08,59,19.50
2008,08,05,09,00,19.60
2008,08,05,09,01,19.60
2008,08,05,09,02,19.70
2008,08,05,09,03,19.80
2008,08,05,09,04,19.90
2008,08,05,09,05,19.90
2008,08,05,09,06,19.90
2008,08,05,09,07,19.90
2008,08,05,09,08,19.90
2008,08,05,09,09,19.90
2008,08,05,09,10,19.90
2008,08,05,09,11,20.00
2008,08,05,09,12,20.10
2008,08,05,09,13,20.20
2008,08,05,09,14,20.20
2008,08,05,09,15,20.20
2008,08,05,09,16,20.20
2008,08,05,09,17,20.20
2008,08,05,09,18,20.20
2008,08,05,09,19,20.20
2008,08,05,09,20,20.20
2008,08,05,09,21,20.20
2008,08,05,09,22,20.30
2008,08,05,09,23,20.40
2008,08,05,09,24,20.40
2008,08,05,09,25,20.40
2008,08,05,09,26,20.40
2008,08,05,09,27,20.40
2008,08,05,09,28,20.30
2008,08,05,09,29,20.20
2008,08,05,09,30,20.20
2008,08,05,09,31,20.20
2008,08,05,09,32,20.20
2008,08,05,09,33,20.30
2008,08,05,09,34,20.40
2008,08,05,09,35,20.40
2008,08,05,09,36,20.50
2008,08,05,09,37,20.50
2008,08,05,09,38,20.60
2008,08,05,09,39,20.60
2008,08,05,09,40,20.70
2008,08,05,09,41,20.70
2008,08,05,09,42,20.70
2008,08,05,09,43,20.80
2008,08,05,09,44,20.80
2008,08,05,09,45,20.90
2008,08,05,09,46,21.00
2008,08,05,09,47,21.00
2008,08,05,09,48,21.00
2008,08,05,09,49,20.90
2008,08,05,09,50,20.80
2008,08,05,09,51,20.70
2008,08,05,09,52,20.70
2008,08,05,09,53,20.60
2008,08,05,09,54,20.50
2008,08,05,09,55,20.50
2008,08,05,09,56,20.60
2008,08,05,09,57,20.70
2008,08,05,09,58,20.70
2008,08,05,09,59,20.70
2008,08,05,10,00,20.70
2008,08,05,10,01,20.70
2008,08,05,10,02,20.60
2008,08,05,10,03,20.60
2008,08,05,10,04,20.50
2008,08,05,10,05,20.50
2008,08,05,10,06,20.50
2008,08,05,10,07,20.50
2008,08,05,10,08,20.50
2008,08,05,10,09,20.70
2008,08,05,10,10,20.80
2008,08,05,10,11,20.80
2008,08,05,10,12,20.80
2008,08,05,10,13,20.70
2008,08,05,10,14,20.80
2008,08,05,10,15,20.80
2008,08,05,10,16,20.90
2008,08,05,10,17,21.00
2008,08,05,10,18,21.00
2008,08,05,10,19,21.20
2008,08,05,10,20,21.30
2008,08,05,10,21,21.30
2008,08,05,10,22,21.40
2008,08,05,10,23,21.40
2008,08,05,10,24,21.30
2008,08,05,10,25,21.30
2008,08,05,10,26,21.30
2008,08,05,10,27,21.40
2008,08,05,10,28,21.30
2008,08,05,10,29,21.30
2008,08,05,10,30,21.20
2008,08,05,10,31,21.20
2008,08,05,10,32,21.20
2008,08,05,10,33,21.20
2008,08,05,10,34,21.30
2008,08,05,10,35,21.30
2008,08,05,10,36,21.30
2008,08,05,10,37,21.30
2008,08,05,10,38,21.40
2008,08,05,10,39,21.50
2008,08,05,10,40,21.60
2008,08,05,10,41,21.60
2008,08,05,10,42,21.70
2008,08,05,10,43,21.70
2008,08,05,10,44,21.80
2008,08,05,10,45,21.90
2008,08,05,10,46,21.90
2008,08,05,10,47,22.00
2008,08,05,10,48,22.00
2008,08,05,10,49,22.00
2008,08,05,10,50,21.90
2008,08,05,10,51,21.90
2008,08,05,10,52,21.90
2008,08,05,10,53,21.90
2008,08,05,10,54,21.90
2008,08,05,10,55,21.80
2008,08,05,10,56,21.80
2008,08,05,10,57,21.80
2008,08,05,10,58,21.90
2008,08,05,10,59,21.90
2008,08,05,11,00,21.80
2008,08,05,11,01,21.80
2008,08,05,11,02,21.80
2008,08,05,11,03,21.80
2008,08,05,11,04,21.90
2008,08,05,11,05,22.00
2008,08,05,11,06,22.00
2008,08,05,11,07,22.20
2008,08,05,11,08,22.30
2008,08,05,11,09,22.40
2008,08,05,11,10,22.50
2008,08,05,11,11,22.60
2008,08,05,11,12,22.60
2008,08,05,11,13,22.60
2008,08,05,11,14,22.60
2008,08,05,11,15,22.60
2008,08,05,11,16,22.70
2008,08,05,11,17,22.70
2008,08,05,11,18,22.60
2008,08,05,11,19,22.50
2008,08,05,11,20,22.50
2008,08,05,11,21,22.60
2008,08,05,11,22,22.50
2008,08,05,11,23,22.50
2008,08,05,11,24,22.50
2008,08,05,11,25,22.60
2008,08,05,11,26,22.70
2008,08,05,11,27,22.80
2008,08,05,11,28,22.90
2008,08,05,11,29,22.80
2008,08,05,11,30,22.80
2008,08,05,11,31,22.70
2008,08,05,11,32,22.80
2008,08,05,11,33,22.80
2008,08,05,11,34,22.90
2008,08,05,11,35,22.90
2008,08,05,11,36,22.90
2008,08,05,11,37,22.90
2008,08,05,11,38,22.90
2008,08,05,11,39,22.90
2008,08,05,11,40,22.90
2008,08,05,11,41,22.80
2008,08,05,11,42,22.70
2008,08,05,11,43,22.70
2008,08,05,11,44,22.80
2008,08,05,11,45,22.80
2008,08,05,11,46,22.90
2008,08,05,11,47,23.00
2008,08,05,11,48,23.10
2008,08,05,11,49,23.30
2008,08,05,11,50,23.30
2008,08,05,11,51,23.40
2008,08,05,11,52,23.40
2008,08,05,11,53,23.30
2008,08,05,11,54,23.40
2008,08,05,11,55,23.50
2008,08,05,11,56,23.60
2008,08,05,11,57,23.70
2008,08,05,11,58,23.70
2008,08,05,11,59,23.80
2008,08,05,12,00,23.80
2008,08,05,12,01,23.80
2008,08,05,12,02,23.70
2008,08,05,12,03,23.80
2008,08,05,12,04,23.90
2008,08,05,12,05,23.90
2008,08,05,12,06,24.00
2008,08,05,12,07,24.10
2008,08,05,12,08,24.10
2008,08,05,12,09,24.10
2008,08,05,12,10,24.30
2008,08,05,12,11,24.40
2008,08,05,12,12,24.40
2008,08,05,12,13,24.30
2008,08,05,12,14,24.20
2008,08,05,12,15,24.10
2008,08,05,12,16,23.90
2008,08,05,12,17,23.80
2008,08,05,12,18,23.80
2008,08,05,12,19,23.80
2008,08,05,12,20,23.70
2008,08,05,12,21,23.70
2008,08,05,12,22,23.70
2008,08,05,12,23,23.70
2008,08,05,12,24,23.70
2008,08,05,12,25,23.80
2008,08,05,12,26,23.90
2008,08,05,12,27,23.90
2008,08,05,12,28,23.90
2008,08,05,12,29,23.90
2008,08,05,12,30,23.90
2008,08,05,12,31,23.90
2008,08,05,12,32,23.90
2008,08,05,12,33,24.10
2008,08,05,12,34,24.20
2008,08,05,12,35,24.30
2008,08,05,12,36,24.40
2008,08,05,12,37,24.50
2008,08,05,12,38,24.50
2008,08,05,12,39,24.50
2008,08,05,12,40,24.60
2008,08,05,12,41,24.50
2008,08,05,12,42,24.60
2008,08,05,12,43,24.60
2008,08,05,12,44,24.60
2008,08,05,12,45,24.60
2008,08,05,12,46,24.60
2008,08,05,12,47,24.60
2008,08,05,12,48,24.60
2008,08,05,12,49,24.50
2008,08,05,12,50,24.50
2008,08,05,12,51,24.40
2008,08,05,12,52,24.30
2008,08,05,12,53,24.40
2008,08,05,12,54,24.50
2008,08,05,12,55,24.70
2008,08,05,12,56,24.70
2008,08,05,12,57,24.70
2008,08,05,12,58,24.80
2008,08,05,12,59,24.90
2008,08,05,13,00,25.00
2008,08,05,13,01,25.00
2008,08,05,13,02,25.00
2008,08,05,13,03,25.10
2008,08,05,13,04,25.20
2008,08,05,13,05,25.30
2008,08,05,13,06,25.30
2008,08,05,13,07,25.30
2008,08,05,13,08,25.20
2008,08,05,13,09,25.10
2008,08,05,13,10,25.10
2008,08,05,13,11,24.90
2008,08,05,13,12,24.90
2008,08,05,13,13,25.00
2008,08,05,13,14,25.00
2008,08,05,13,15,25.00
2008,08,05,13,16,24.90
2008,08,05,13,17,24.90
2008,08,05,13,18,24.90
2008,08,05,13,19,24.90
2008,08,05,13,20,25.00
2008,08,05,13,21,25.10
2008,08,05,13,22,25.20
2008,08,05,13,23,25.30
2008,08,05,13,24,25.40
2008,08,05,13,25,25.40
2008,08,05,13,26,25.40
2008,08,05,13,27,25.40
2008,08,05,13,28,25.40
2008,08,05,13,29,25.40
2008,08,05,13,30,25.40
2008,08,05,13,31,25.40
2008,08,05,13,32,25.40
2008,08,05,13,33,25.40
2008,08,05,13,34,25.40
2008,08,05,13,35,25.50
2008,08,05,13,36,25.70
2008,08,05,13,37,25.80
2008,08,05,13,38,25.80
2008,08,05,13,39,25.70
2008,08,05,13,40,25.60
2008,08,05,13,41,25.60
2008,08,05,13,42,25.50
2008,08,05,13,43,25.40
2008,08,05,13,44,25.30
2008,08,05,13,45,25.20
2008,08,05,13,46,25.20
2008,08,05,13,47,25.20
2008,08,05,13,48,25.20
2008,08,05,13,49,25.20
2008,08,05,13,50,25.20
2008,08,05,13,51,25.20
2008,08,05,13,52,25.20
2008,08,05,13,53,25.20
2008,08,05,13,54,25.20
2008,08,05,13,55,25.30
2008,08,05,13,56,25.30
2008,08,05,13,57,25.30
2008,08,05,13,58,25.40
2008,08,05,13,59,25.30
2008,08,05,14,00,25.30
2008,08,05,14,01,25.30
2008,08,05,14,02,25.30
2008,08,05,14,03,25.30
2008,08,05,14,04,25.30
2008,08,05,14,05,25.20
2008,08,05,14,06,25.10
2008,08,05,14,07,25.10
2008,08,05,14,08,25.30
2008,08,05,14,09,25.40
2008,08,05,14,10,25.50
2008,08,05,14,11,25.50
2008,08,05,14,12,25.50
2008,08,05,14,13,25.40
2008,08,05,14,14,25.40
2008,08,05,14,15,25.40
2008,08,05,14,16,25.50
2008,08,05,14,17,25.50
2008,08,05,14,18,25.50
2008,08,05,14,19,25.50
2008,08,05,14,20,25.60
2008,08,05,14,21,25.60
2008,08,05,14,22,25.60
2008,08,05,14,23,25.60
2008,08,05,14,24,25.60
2008,08,05,14,25,25.60
2008,08,05,14,26,25.50
2008,08,05,14,27,25.50
2008,08,05,14,28,25.60
2008,08,05,14,29,25.60
2008,08,05,14,30,25.60
2008,08,05,14,31,25.60
2008,08,05,14,32,25.70
2008,08,05,14,33,25.80
2008,08,05,14,34,25.90
2008,08,05,14,35,26.00
2008,08,05,14,36,25.90
2008,08,05,14,37,26.00
2008,08,05,14,38,26.00
2008,08,05,14,39,26.10
2008,08,05,14,40,26.10
2008,08,05,14,41,26.20
2008,08,05,14,42,26.30
2008,08,05,14,43,26.40
2008,08,05,14,44,26.60
2008,08,05,14,45,26.50
2008,08,05,14,46,26.40
2008,08,05,14,47,26.20
2008,08,05,14,48,26.20
2008,08,05,14,49,26.20
2008,08,05,14,50,26.20
2008,08,05,14,51,26.20
2008,08,05,14,52,26.20
2008,08,05,14,53,26.20
2008,08,05,14,54,26.10
2008,08,05,14,55,26.00
2008,08,05,14,56,26.00
2008,08,05,14,57,26.00
2008,08,05,14,58,26.00
2008,08,05,14,59,26.00
2008,08,05,15,00,26.10
2008,08,05,15,01,26.10
2008,08,05,15,02,26.20
2008,08,05,15,03,26.30
2008,08,05,15,04,26.30
2008,08,05,15,05,26.30
2008,08,05,15,06,26.30
2008,08,05,15,07,26.30
2008,08,05,15,08,26.40
2008,08,05,15,09,26.40
2008,08,05,15,10,26.40
2008,08,05,15,11,26.60
2008,08,05,15,12,26.60
2008,08,05,15,13,26.60
2008,08,05,15,14,26.60
2008,08,05,15,15,26.60
2008,08,05,15,16,26.50
2008,08,05,15,17,26.40
2008,08,05,15,18,26.20
2008,08,05,15,19,26.10
2008,08,05,15,20,26.20
2008,08,05,15,21,26.30
2008,08,05,15,22,26.30
2008,08,05,15,23,26.30
2008,08,05,15,24,26.20
2008,08,05,15,25,26.30
2008,08,05,15,26,26.30
2008,08,05,15,27,26.30
2008,08,05,15,28,26.40
2008,08,05,15,29,26.50
2008,08,05,15,30,26.70
2008,08,05,15,31,26.80
2008,08,05,15,32,26.80
2008,08,05,15,33,26.80
2008,08,05,15,34,26.90
2008,08,05,15,35,27.00
2008,08,05,15,36,27.10
2008,08,05,15,37,27.10
2008,08,05,15,38,27.10
2008,08,05,15,39,27.10
2008,08,05,15,40,27.00
2008,08,05,15,41,27.10
2008,08,05,15,42,27.10
2008,08,05,15,43,27.10
2008,08,05,15,44,27.00
2008,08,05,15,45,26.90
2008,08,05,15,46,27.00
2008,08,05,15,47,27.10
2008,08,05,15,48,27.00
2008,08,05,15,49,26.90
2008,08,05,15,50,26.80
2008,08,05,15,51,26.80
2008,08,05,15,52,26.80
2008,08,05,15,53,26.80
2008,08,05,15,54,26.80
2008,08,05,15,55,26.80
2008,08,05,15,56,26.90
2008,08,05,15,57,27.10
2008,08,05,15,58,27.20
2008,08,05,15,59,27.20
2008,08,05,16,00,27.30
2008,08,05,16,01,27.30
2008,08,05,16,02,27.30
2008,08,05,16,03,27.40
2008,08,05,16,04,27.30
2008,08,05,16,05,27.20
2008,08,05,16,06,27.20
2008,08,05,16,07,27.10
2008,08,05,16,08,27.10
2008,08,05,16,09,26.90
2008,08,05,16,10,26.80
2008,08,05,16,11,26.60
2008,08,05,16,12,26.60
2008,08,05,16,13,26.60
2008,08,05,16,14,26.50
2008,08,05,16,15,26.40
2008,08,05,16,16,26.30
2008,08,05,16,17,26.30
2008,08,05,16,18,26.40
2008,08,05,16,19,26.50
2008,08,05,16,20,26.60
2008,08,05,16,21,26.60
2008,08,05,16,22,26.60
2008,08,05,16,23,26.70
2008,08,05,16,24,26.80
2008,08,05,16,25,26.80
2008,08,05,16,26,26.80
2008,08,05,16,27,26.90
2008,08,05,16,28,26.90
2008,08,05,16,29,27.00
2008,08,05,16,30,27.00
2008,08,05,16,31,27.00
2008,08,05,16,32,27.10
2008,08,05,16,33,27.10
2008,08,05,16,34,27.10
2008,08,05,16,35,27.10
2008,08,05,16,36,27.10
2008,08,05,16,37,27.20
2008,08,05,16,38,27.20
2008,08,05,16,39,27.20
2008,08,05,16,40,27.30
2008,08,05,16,41,27.30
2008,08,05,16,42,27.30
2008,08,05,16,43,27.40
2008,08,05,16,44,27.50
2008,08,05,16,45,27.60
2008,08,05,16,46,27.60
2008,08,05,16,47,27.60
2008,08,05,16,48,27.50
2008,08,05,16,49,27.40
2008,08,05,16,50,27.30
2008,08,05,16,51,27.30
2008,08,05,16,52,27.30
2008,08,05,16,53,27.30
2008,08,05,16,54,27.20
2008,08,05,16,55,27.20
2008,08,05,16,56,27.20
2008,08,05,16,57,27.20
2008,08,05,16,58,27.20
2008,08,05,16,59,27.20
2008,08,05,17,00,27.20
2008,08,05,17,01,27.30
2008,08,05,17,02,27.30
2008,08,05,17,03,27.30
2008,08,05,17,04,27.30
2008,08,05,17,05,27.30
2008,08,05,17,06,27.20
2008,08,05,17,07,27.20
2008,08,05,17,08,27.20
2008,08,05,17,09,27.20
2008,08,05,17,10,27.10
2008,08,05,17,11,27.10
2008,08,05,17,12,27.00
2008,08,05,17,13,26.90
2008,08,05,17,14,26.90
2008,08,05,17,15,27.00
2008,08,05,17,16,27.10
2008,08,05,17,17,27.20
2008,08,05,17,18,27.30
2008,08,05,17,19,27.40